TimeEST,TemperatureF,Dew PointF,Humidity,Sea Level PressureIn,VisibilityMPH,Wind Direction,Wind SpeedMPH,Gust SpeedMPH,PrecipitationIn,Events,Conditions,WindDirDegrees,DateUTC
12:54 AM,36.0,30.0,79,30.18,10.0,East,6.9,-,N/A,,Clear,90,2013-02-07 05:54:00
1:54 AM,37.0,30.0,76,30.17,10.0,East,6.9,-,N/A,,Clear,100,2013-02-07 06:54:00
2:54 AM,37.0,28.9,73,30.15,10.0,ESE,6.9,-,N/A,,Clear,110,2013-02-07 07:54:00
3:54 AM,37.0,30.0,76,30.14,10.0,ESE,6.9,-,N/A,,Mostly Cloudy,120,2013-02-07 08:54:00
4:54 AM,37.9,30.0,73,30.14,10.0,SE,8.1,-,N/A,,Overcast,130,2013-02-07 09:54:00
5:54 AM,37.9,30.0,73,30.14,10.0,ESE,3.5,-,N/A,,Overcast,120,2013-02-07 10:54:00
6:54 AM,37.9,30.0,73,30.13,10.0,East,4.6,-,N/A,,Mostly Cloudy,90,2013-02-07 11:54:00
7:54 AM,37.9,30.0,73,30.12,10.0,ESE,9.2,-,N/A,,Mostly Cloudy,120,2013-02-07 12:54:00
8:54 AM,39.9,30.0,68,30.12,10.0,SE,10.4,-,N/A,,Scattered Clouds,130,2013-02-07 13:54:00
9:54 AM,43.0,30.9,62,30.10,10.0,ESE,3.5,-,N/A,,Scattered Clouds,120,2013-02-07 14:54:00
10:54 AM,48.9,32.0,52,30.09,10.0,SSE,9.2,-,N/A,,Clear,150,2013-02-07 15:54:00
11:54 AM,54.0,33.1,45,30.07,10.0,South,12.7,18.4,N/A,,Clear,170,2013-02-07 16:54:00
12:54 PM,59.0,35.1,41,30.02,10.0,South,9.2,-,N/A,,Clear,190,2013-02-07 17:54:00
1:54 PM,61.0,35.1,38,29.99,10.0,WSW,8.1,-,N/A,,Clear,240,2013-02-07 18:54:00
2:54 PM,62.1,36.0,38,29.96,10.0,SSW,17.3,-,N/A,,Clear,210,2013-02-07 19:54:00
3:54 PM,63.0,37.9,40,29.95,10.0,SW,9.2,-,N/A,,Clear,220,2013-02-07 20:54:00
4:54 PM,61.0,37.9,42,29.94,10.0,SSW,8.1,-,N/A,,Clear,200,2013-02-07 21:54:00
5:54 PM,55.9,36.0,47,29.93,10.0,South,8.1,-,N/A,,Clear,170,2013-02-07 22:54:00
6:54 PM,52.0,35.1,53,29.94,10.0,South,9.2,-,N/A,,Partly Cloudy,170,2013-02-07 23:54:00
7:54 PM,50.0,34.0,54,29.93,10.0,SSE,8.1,-,N/A,,Clear,160,2013-02-08 00:54:00
8:54 PM,48.9,33.1,54,29.92,10.0,South,6.9,-,N/A,,Clear,180,2013-02-08 01:54:00
9:54 PM,46.9,33.1,59,29.91,10.0,South,8.1,-,N/A,,Clear,170,2013-02-08 02:54:00
10:54 PM,46.9,33.1,59,29.89,10.0,South,10.4,-,N/A,,Clear,170,2013-02-08 03:54:00
11:54 PM,46.9,37.0,68,29.88,10.0,South,10.4,-,N/A,,Clear,180,2013-02-08 04:54:00